2016-07-14 00:00:31 r, 15.33m,0000000066Hz,0000007045c,0000000.015s, 029.9C,00002195
2016-07-14 00:10:31 r, 15.34m,0000000065Hz,0000007108c,0000000.015s, 029.9C,00002195
2016-07-14 00:20:32 r, 15.49m,0000000056Hz,0000008155c,0000000.018s, 029.9C,00002195
2016-07-14 00:30:31 r, 15.31m,0000000065Hz,0000006964c,0000000.015s, 029.9C,00002195
2016-07-14 00:40:31 r, 15.32m,0000000066Hz,0000007012c,0000000.015s, 029.9C,00002195
2016-07-14 00:50:31 r, 15.33m,0000000065Hz,0000007074c,0000000.015s, 029.9C,00002195
2016-07-14 01:00:31 r, 15.49m,0000000058Hz,0000008149c,0000000.018s, 029.9C,00002195
2016-07-14 01:10:31 r, 15.29m,0000000067Hz,0000006786c,0000000.015s, 029.9C,00002195
2016-07-14 01:20:31 r, 15.31m,0000000066Hz,0000006942c,0000000.015s, 029.9C,00002195
2016-07-14 01:30:32 r, 15.40m,0000000061Hz,0000007546c,0000000.016s, 029.9C,00002195
2016-07-14 01:40:31 r, 15.45m,0000000057Hz,0000007920c,0000000.017s, 029.9C,00002195
2016-07-14 01:50:32 r, 15.41m,0000000061Hz,0000007553c,0000000.016s, 029.9C,00002195
2016-07-14 02:00:31 r, 15.77m,0000000044Hz,0000010668c,0000000.023s, 029.9C,00002195
2016-07-14 02:10:31 r, 15.64m,0000000049Hz,0000009395c,0000000.020s, 029.9C,00002195
2016-07-14 02:20:32 r, 16.00m,0000000035Hz,0000013057c,0000000.028s, 029.9C,00002195
2016-07-14 02:30:31 r, 16.23m,0000000029Hz,0000016173c,0000000.035s, 029.9C,00002195
2016-07-14 02:40:32 r, 16.06m,0000000033Hz,0000013791c,0000000.030s, 030.2C,00002195
2016-07-14 02:50:32 r, 16.52m,0000000022Hz,0000021040c,0000000.046s, 030.2C,00002195
2016-07-14 03:00:31 r, 16.15m,0000000031Hz,0000014985c,0000000.033s, 030.2C,00002195
2016-07-14 03:10:31 r, 16.39m,0000000024Hz,0000018736c,0000000.041s, 030.6C,00002195
2016-07-14 03:20:31 r, 15.97m,0000000036Hz,0000012698c,0000000.028s, 030.6C,00002195
2016-07-14 03:30:31 r, 16.08m,0000000033Hz,0000014056c,0000000.031s, 030.6C,00002195
2016-07-14 03:40:32 r, 15.98m,0000000035Hz,0000012827c,0000000.028s, 030.9C,00002195
2016-07-14 03:50:32 r, 16.06m,0000000033Hz,0000013797c,0000000.030s, 030.9C,00002195
2016-07-14 04:00:31 r, 16.19m,0000000030Hz,0000015640c,0000000.034s, 030.9C,00002195
2016-07-14 04:10:33 r, 16.37m,0000000025Hz,0000018543c,0000000.040s, 030.9C,00002195
2016-07-14 04:20:31 r, 16.04m,0000000033Hz,0000013659c,0000000.030s, 030.9C,00002195
2016-07-14 04:30:31 r, 15.75m,0000000044Hz,0000010450c,0000000.023s, 030.9C,00002195
2016-07-14 04:40:31 r, 15.15m,0000000076Hz,0000006010c,0000000.013s, 030.9C,00002195
2016-07-14 04:50:31 r, 13.72m,0000000289Hz,0000000000c,0000000.000s, 030.9C,00002195
2016-07-14 05:00:31 r, 12.31m,0000001066Hz,0000000000c,0000000.000s, 030.9C,00002195
2016-07-14 05:10:31 r, 10.67m,0000004817Hz,0000000000c,0000000.000s, 030.9C,00002195
2016-07-14 05:20:31 r, 09.53m,0000013819Hz,0000000000c,0000000.000s, 030.9C,00002195
2016-07-14 05:30:31 r, 08.66m,0000030557Hz,0000000000c,0000000.000s, 030.9C,00002195
2016-07-14 05:40:31 r, 07.90m,0000061468Hz,0000000000c,0000000.000s, 030.9C,00002195
2016-07-14 05:50:31 r, 07.24m,0000113393Hz,0000000000c,0000000.000s, 031.2C,00002195
2016-07-14 06:00:31 r, 06.52m,0000219881Hz,0000000000c,0000000.000s, 031.2C,00002195
2016-07-14 06:10:31 r, 05.99m,0000357252Hz,0000000000c,0000000.000s, 031.2C,00002195
2016-07-14 06:20:31 r, 00.00m,0000564716Hz,0000000000c,0000000.000s, 031.2C,00002195
2016-07-14 06:30:31 r, 00.00m,0000564718Hz,0000000000c,0000000.000s, 031.5C,00002195
2016-07-14 06:40:32 r, 00.00m,0000564685Hz,0000000000c,0000000.000s, 031.5C,00002195
2016-07-14 06:50:31 r, 00.00m,0000564614Hz,0000000000c,0000000.000s, 031.5C,00002195
2016-07-14 07:00:31 r, 00.00m,0000564754Hz,0000000000c,0000000.000s, 031.9C,00002195
2016-07-14 07:10:32 r, 00.00m,0000564685Hz,0000000000c,0000000.000s, 031.9C,00002195
2016-07-14 07:20:32 r, 00.00m,0000564798Hz,0000000000c,0000000.000s, 031.9C,00002195
2016-07-14 07:30:31 r, 00.00m,0000564850Hz,0000000000c,0000000.000s, 032.2C,00002195
2016-07-14 07:40:32 r, 00.00m,0000564838Hz,0000000000c,0000000.000s, 032.5C,00002195
2016-07-14 07:50:31 r, 00.00m,0000564909Hz,0000000000c,0000000.000s, 032.5C,00002195
2016-07-14 08:00:31 r, 00.00m,0000564863Hz,0000000000c,0000000.000s, 032.8C,00002195
2016-07-14 08:10:31 r, 00.00m,0000564991Hz,0000000000c,0000000.000s, 033.1C,00002195
2016-07-14 08:20:31 r, 00.00m,0000564950Hz,0000000000c,0000000.000s, 033.1C,00002195
2016-07-14 08:30:31 r, 00.00m,0000564923Hz,0000000000c,0000000.000s, 033.5C,00002195
2016-07-14 08:40:31 r, 00.00m,0000564929Hz,0000000000c,0000000.000s, 033.8C,00002195
2016-07-14 08:50:32 r, 00.00m,0000565105Hz,0000000000c,0000000.000s, 034.1C,00002195
2016-07-14 09:00:31 r, 00.00m,0000565111Hz,0000000000c,0000000.000s, 034.8C,00002195
2016-07-14 09:10:31 r, 00.00m,0000565150Hz,0000000000c,0000000.000s, 035.4C,00002195
2016-07-14 09:20:32 r, 00.00m,0000565200Hz,0000000000c,0000000.000s, 036.0C,00002195
2016-07-14 09:30:31 r, 00.00m,0000565264Hz,0000000000c,0000000.000s, 036.7C,00002195
2016-07-14 09:40:31 r, 00.00m,0000565294Hz,0000000000c,0000000.000s, 036.7C,00002195
2016-07-14 09:50:31 r, 00.00m,0000565218Hz,0000000000c,0000000.000s, 036.4C,00002195
2016-07-14 10:00:31 r, 00.00m,0000565434Hz,0000000000c,0000000.000s, 037.7C,00002195
2016-07-14 10:10:31 r, 00.00m,0000565743Hz,0000000000c,0000000.000s, 040.6C,00002195
2016-07-14 10:20:31 r, 00.00m,0000565796Hz,0000000000c,0000000.000s, 042.5C,00002195
2016-07-14 10:30:31 r, 00.00m,0000565934Hz,0000000000c,0000000.000s, 043.8C,00002195
2016-07-14 10:40:34 r, 00.00m,0000565860Hz,0000000000c,0000000.000s, 043.8C,00002195
2016-07-14 10:50:31 r, 00.00m,0000565897Hz,0000000000c,0000000.000s, 044.1C,00002195
2016-07-14 11:00:31 r, 00.00m,0000565888Hz,0000000000c,0000000.000s, 044.1C,00002195
2016-07-14 11:10:31 r, 00.00m,0000565920Hz,0000000000c,0000000.000s, 044.1C,00002195
2016-07-14 11:20:31 r, 00.00m,0000566040Hz,0000000000c,0000000.000s, 045.1C,00002195
2016-07-14 11:30:31 r, 00.00m,0000565745Hz,0000000000c,0000000.000s, 043.8C,00002195
2016-07-14 11:40:31 r, 00.00m,0000565948Hz,0000000000c,0000000.000s, 045.1C,00002195
2016-07-14 11:50:32 r, 00.00m,0000566008Hz,0000000000c,0000000.000s, 045.7C,00002195
2016-07-14 12:00:31 r, 00.00m,0000565941Hz,0000000000c,0000000.000s, 045.7C,00002195
2016-07-14 12:10:31 r, 00.00m,0000565927Hz,0000000000c,0000000.000s, 045.7C,00002195
2016-07-14 12:20:32 r, 00.00m,0000566153Hz,0000000000c,0000000.000s, 048.9C,00002195
2016-07-14 12:30:31 r, 00.00m,0000566269Hz,0000000000c,0000000.000s, 049.9C,00002195
2016-07-14 12:40:32 r, 00.00m,0000566136Hz,0000000000c,0000000.000s, 049.6C,00002195
2016-07-14 12:50:31 r, 00.00m,0000565966Hz,0000000000c,0000000.000s, 048.3C,00002195
2016-07-14 13:00:33 r, 00.00m,0000565814Hz,0000000000c,0000000.000s, 046.4C,00002195
2016-07-14 13:10:31 r, 00.00m,0000565768Hz,0000000000c,0000000.000s, 045.4C,00002195
2016-07-14 13:20:31 r, 00.00m,0000565794Hz,0000000000c,0000000.000s, 045.1C,00002195
2016-07-14 13:30:31 r, 00.00m,0000565816Hz,0000000000c,0000000.000s, 045.7C,00002195
2016-07-14 13:40:31 r, 00.00m,0000565870Hz,0000000000c,0000000.000s, 046.4C,00002195
2016-07-14 13:50:31 r, 00.00m,0000565863Hz,0000000000c,0000000.000s, 046.7C,00002195
2016-07-14 14:00:32 r, 00.00m,0000565903Hz,0000000000c,0000000.000s, 047.7C,00002195
2016-07-14 14:10:31 r, 00.00m,0000565873Hz,0000000000c,0000000.000s, 047.0C,00002195
2016-07-14 14:20:31 r, 00.00m,0000566155Hz,0000000000c,0000000.000s, 049.3C,00002195
2016-07-14 14:30:33 r, 00.00m,0000566247Hz,0000000000c,0000000.000s, 050.6C,00002195
2016-07-14 14:40:31 r, 00.00m,0000566100Hz,0000000000c,0000000.000s, 049.6C,00002195
2016-07-14 14:50:31 r, 00.00m,0000566087Hz,0000000000c,0000000.000s, 048.9C,00002195
2016-07-14 15:00:32 r, 00.00m,0000566163Hz,0000000000c,0000000.000s, 049.6C,00002195
2016-07-14 15:10:31 r, 00.00m,0000566086Hz,0000000000c,0000000.000s, 049.9C,00002195
2016-07-14 15:20:31 r, 00.00m,0000566204Hz,0000000000c,0000000.000s, 050.6C,00002195
2016-07-14 15:30:31 r, 00.00m,0000566018Hz,0000000000c,0000000.000s, 050.2C,00002195
2016-07-14 15:40:31 r, 00.00m,0000566106Hz,0000000000c,0000000.000s, 051.2C,00002195
2016-07-14 15:50:31 r, 00.00m,0000566070Hz,0000000000c,0000000.000s, 050.2C,00002195
2016-07-14 16:00:32 r, 00.00m,0000565776Hz,0000000000c,0000000.000s, 047.7C,00002195
2016-07-14 16:10:31 r, 00.00m,0000565809Hz,0000000000c,0000000.000s, 047.7C,00002195
2016-07-14 16:20:31 r, 00.00m,0000565875Hz,0000000000c,0000000.000s, 048.0C,00002195
2016-07-14 16:30:31 r, 00.00m,0000565991Hz,0000000000c,0000000.000s, 049.9C,00002195
2016-07-14 16:40:32 r, 00.00m,0000566019Hz,0000000000c,0000000.000s, 049.6C,00002195
2016-07-14 16:50:31 r, 00.00m,0000565864Hz,0000000000c,0000000.000s, 048.6C,00002195
2016-07-14 17:00:31 r, 00.00m,0000566045Hz,0000000000c,0000000.000s, 049.3C,00002195
2016-07-14 17:10:31 r, 00.00m,0000565876Hz,0000000000c,0000000.000s, 049.3C,00002195
2016-07-14 17:20:31 r, 00.00m,0000565859Hz,0000000000c,0000000.000s, 048.9C,00002195
2016-07-14 17:30:33 r, 00.00m,0000565914Hz,0000000000c,0000000.000s, 049.3C,00002195
2016-07-14 17:40:31 r, 00.00m,0000565886Hz,0000000000c,0000000.000s, 049.3C,00002195
2016-07-14 17:50:31 r, 00.00m,0000565876Hz,0000000000c,0000000.000s, 048.9C,00002195
2016-07-14 18:00:31 r, 00.00m,0000565647Hz,0000000000c,0000000.000s, 047.7C,00002195
2016-07-14 18:10:31 r, 00.00m,0000565760Hz,0000000000c,0000000.000s, 048.3C,00002195
2016-07-14 18:20:31 r, 00.00m,0000565630Hz,0000000000c,0000000.000s, 047.7C,00002195
2016-07-14 18:30:31 r, 00.00m,0000565654Hz,0000000000c,0000000.000s, 047.0C,00002195
2016-07-14 18:40:31 r, 00.00m,0000565314Hz,0000000000c,0000000.000s, 044.1C,00002195
2016-07-14 18:50:31 r, 00.00m,0000565487Hz,0000000000c,0000000.000s, 044.4C,00002195
2016-07-14 19:00:31 r, 00.00m,0000565278Hz,0000000000c,0000000.000s, 043.8C,00002195
2016-07-14 19:10:31 r, 00.00m,0000565073Hz,0000000000c,0000000.000s, 041.9C,00002195
2016-07-14 19:20:31 r, 00.00m,0000565050Hz,0000000000c,0000000.000s, 040.2C,00002195
2016-07-14 19:30:31 r, 00.00m,0000564926Hz,0000000000c,0000000.000s, 039.3C,00002195
2016-07-14 19:40:31 r, 00.00m,0000564885Hz,0000000000c,0000000.000s, 038.6C,00002195
2016-07-14 19:50:31 r, 00.00m,0000564924Hz,0000000000c,0000000.000s, 038.6C,00002195
2016-07-14 20:00:34 r, 00.00m,0000564854Hz,0000000000c,0000000.000s, 038.0C,00002195
2016-07-14 20:10:31 r, 00.00m,0000564822Hz,0000000000c,0000000.000s, 037.3C,00002195
2016-07-14 20:20:31 r, 00.00m,0000484778Hz,0000000000c,0000000.000s, 037.0C,00002195
2016-07-14 20:30:32 r, 00.00m,0000458741Hz,0000000000c,0000000.000s, 036.7C,00002195
2016-07-14 20:40:31 r, 00.00m,0000464438Hz,0000000000c,0000000.000s, 036.4C,00002195
2016-07-14 20:50:34 r, 00.00m,0000449716Hz,0000000000c,0000000.000s, 036.0C,00002195
2016-07-14 21:00:31 r, 06.03m,0000344587Hz,0000000000c,0000000.000s, 035.7C,00002195
2016-07-14 21:10:31 r, 06.39m,0000248599Hz,0000000000c,0000000.000s, 035.4C,00002195
2016-07-14 21:20:31 r, 07.01m,0000139771Hz,0000000000c,0000000.000s, 035.4C,00002195
2016-07-14 21:30:31 r, 07.75m,0000070694Hz,0000000000c,0000000.000s, 034.8C,00002195
2016-07-14 21:40:31 r, 08.50m,0000035770Hz,0000000000c,0000000.000s, 034.4C,00002195
2016-07-14 21:50:31 r, 09.77m,0000011058Hz,0000000000c,0000000.000s, 034.1C,00002195
2016-07-14 22:00:32 r, 11.11m,0000003185Hz,0000000000c,0000000.000s, 033.8C,00002195
2016-07-14 22:10:31 r, 12.62m,0000000798Hz,0000000000c,0000000.000s, 033.8C,00002195
2016-07-14 22:20:31 r, 14.18m,0000000189Hz,0000000000c,0000000.000s, 033.5C,00002195
2016-07-14 22:30:34 r, 15.56m,0000000053Hz,0000008730c,0000000.019s, 033.5C,00002195
2016-07-14 22:40:31 r, 16.46m,0000000023Hz,0000020048c,0000000.044s, 033.5C,00002195
2016-07-14 22:50:32 r, 17.09m,0000000013Hz,0000035606c,0000000.077s, 033.1C,00002195
2016-07-14 23:00:31 r, 17.27m,0000000010Hz,0000042423c,0000000.092s, 033.1C,00002195
2016-07-14 23:10:31 r, 17.45m,0000000010Hz,0000049851c,0000000.108s, 032.8C,00002195
2016-07-14 23:20:34 r, 17.55m,0000000009Hz,0000054431c,0000000.118s, 032.8C,00002195
2016-07-14 23:30:32 r, 17.63m,0000000007Hz,0000058451c,0000000.127s, 032.5C,00002195
2016-07-14 23:40:31 r, 17.70m,0000000008Hz,0000062311c,0000000.135s, 032.5C,00002195
2016-07-14 23:50:32 r, 17.75m,0000000007Hz,0000065393c,0000000.142s, 032.5C,00002195
